{"data":{"norad_id":62986,"epoch":"2026-05-25T00:44:59.527392Z","epoch_age_seconds":82999,"freshness":"FRESH","line1":"1 62986U 25031F   26145.03124453  .00244381  00000+0  18469-2 0  9993","line2":"2 62986  42.9992 260.8768 0001139 299.2805  60.7948 15.70912554 74750","mean_motion":15.70912554,"eccentricity":0.0001139,"inclination_deg":42.9992,"raan_deg":260.8768,"arg_perigee_deg":299.2805,"mean_anomaly_deg":60.7948,"bstar":0.0018469,"rev_number":7475,"period_min":91.666464586672,"perigee_km":355.52064566636,"apogee_km":357.05474761226,"semimajor_km":6734.4246966393,"source":"CELESTRAK","updated_at":"2026-05-25T13:38:19.830835Z"}}